Regional Weather Roundup
Issued by NWS

Home | Current Version | Previous Version | Graphics & Text | Print | Product List | Glossary On
Versions: 1 2 3 4 5 6 7 8 9 10 11 12 13 14 15 16 17 18 19 20 21 22 23 24 25 26 27 28 29 30 31 32 33 34 35 36 37 38 39 40 41 42 43 44 45 46 47 48 49 50
000
ASUS43 KMKX 261721
RWRWI

WISCONSIN REGIONAL WEATHER ROUNDUP
NATIONAL WEATHER SERVICE MILWAUKEE/SULLIVAN WI
1200 PM CDT THU MAR 26 2015

NOTE: "FAIR" INDICATES FEW OR NO CLOUDS BELOW 12,000 FEET WITH NO
SIGNIFICANT WEATHER AND/OR OBSTRUCTIONS TO VISIBILITY.

WIZ001-002-006>008-014>016-023>028-261800-
NORTHWEST WISCONSIN

CITY           SKY/WX    TMP DP  RH WIND       PRES   REMARKS
SUPERIOR ARPT  CLOUDY    29  13  52 N10G16    30.14S WCI  20
ASHLAND        CLOUDY    26  13  57 N12       30.11S WCI  16
HAYWARD        CLOUDY    26  13  57 N10       30.07S WCI  16
SIREN          CLOUDY    30  14  51 N13       30.10S WCI  20
CUMBERLAND     CLOUDY    28  14  54 N14G21    30.07S WCI  17
RICE LAKE      CLOUDY    30  15  53 NW9G16    30.09S WCI  21
CHETEK         CLOUDY    29  17  61 NW8       30.07S WCI  21
LADYSMITH      CLOUDY    28  17  62 N12G18    30.06S WCI  18
EAU CLAIRE     CLOUDY    32  18  56 N10G18    30.06R WCI  24
MENOMONIE      CLOUDY    33  16  49 NW15G22   30.07S WCI  22
NEW RICHMOND   CLOUDY    32  17  53 N13       30.10S WCI  22
OSCEOLA        CLOUDY    32  17  55 N14       30.13S WCI  22
$$

WIZ003>005-009-010-017-018-261800-
NORTH CENTRAL WISCONSIN

CITY           SKY/WX    TMP DP  RH WIND       PRES   REMARKS
MANITOWISH WTR LGT SNOW  21  12  68 N10G24    29.99R WCI  10
ARBOR VITAE    FLURRIES  23  13  64 N13       29.98S WCI  11
WOODRUFF       FLURRIES  23  13  64 N13       29.98S WCI  11
RHINELANDER    CLOUDY    24  12  60 NW16G22   29.96S WCI  11
EAGLE RIVER    CLOUDY    22  11  60 NW17      29.96R WCI   8
LAND O LAKES   LGT SNOW  22  13  70 NW14G20   29.97R WCI   9
PHILLIPS       CLOUDY    23  12  64 NW12G18   30.01S WCI  11
TOMAHAWK       FLURRIES  24  14  64 N9G17     29.99S WCI  15
MEDFORD        CLOUDY    25  15  65 NW13      30.00R WCI  14
MERRILL        CLOUDY    26  13  58 N10G18    29.99R WCI  17
$$

WIZ029-030-035-036-043>047-261800-
CENTRAL WISCONSIN

CITY           SKY/WX    TMP DP  RH WIND       PRES   REMARKS
WAUSAU         CLOUDY    27  15  61 NW13G21   29.97S WCI  16
MOSINEE        CLOUDY    27  19  74 N16       29.99R WCI  14
MARSHFIELD     CLOUDY    30  17  58 NW18      30.00R WCI  18
STEVENS POINT  CLOUDY    28  16  61 NW13      29.99R WCI  17
WAUPACA        CLOUDY    35  18  50 NW15      29.98S WCI  25
WAUTOMA        CLOUDY    33  21  61 NW12      29.99S WCI  24
WISC RAPIDS    CLOUDY    30  18  60 NW15      30.01R WCI  19
CAMP DOUGLAS   CLOUDY    34  23  64 W10       30.01S WCI  26
$$

WIZ011>013-019>022-031-037>040-048>050-261800-
NORTHEAST WISCONSIN

CITY           SKY/WX    TMP DP  RH WIND       PRES   REMARKS
ANTIGO         CLOUDY    26  16  66 N14G20    29.95S WCI  14
SHAWANO        CLOUDY    33  19  56 NW12G18   29.96S WCI  24
OCONTO         CLOUDY    32  19  58 N10G18    29.94S WCI  24
STURGEON BAY   CLOUDY    30  19  64 N18       29.95S WCI  18
GREEN BAY      CLOUDY    33  21  61 NW17      29.95S WCI  22
MANITOWOC      LGT RAIN  34  24  67 NW14      29.94S WCI  25
APPLETON       CLOUDY    32  19  59 NW15      29.96S WCI  22
CLINTONVILLE   CLOUDY    32  19  59 N13G18    29.97R WCI  22
OSHKOSH        CLOUDY    33  21  61 NW16      29.96S WCI  23
$$

WIZ032>034-041-042-053>061-261800-
SOUTHWEST WISCONSIN

CITY           SKY/WX    TMP DP  RH WIND       PRES   REMARKS
LA CROSSE      CLOUDY    34  21  59 NW15      30.06F WCI  24
SPARTA         CLOUDY    34  19  54 NW13      30.05S WCI  25
VIROQUA        CLOUDY    32  22  65 N10G17    30.02S WCI  23
BOSCOBEL       CLOUDY    36  21  54 NW9       30.05S WCI  29
PRAIRIE DU CHI MOSUNNY   34  20  57 W17G23    30.06F WCI  24
PLATTEVILLE    CLOUDY    35  24  65 W14       30.03S WCI  25
$$

WIZ056-057-062-063-064-067-068-261800-
SOUTH CENTRAL WISCONSIN

CITY           SKY/WX    TMP DP  RH WIND       PRES   REMARKS
REEDSBURG      CLOUDY    34  20  56 NW12G20   30.01R WCI  25
BARABOO/DELLS  CLOUDY    33  19  56 NW15      30.00R WCI  23
LONE ROCK      CLOUDY    37  21  52 NW13G24   30.02S WCI  29
MINERAL POINT  CLOUDY    36  21  55 NW14      30.00F WCI  27
MADISON        CLOUDY    36  20  52 NW10      29.99S WCI  28
MIDDLETON      CLOUDY    37  21  53 NW16      30.00S WCI  27
WATERTOWN      CLOUDY    35  22  58 W14       29.96F WCI  26
MONROE         CLOUDY    36  25  64 NW13      29.99F WCI  27
JANESVILLE     CLOUDY    37  23  56 NW12      29.99S WCI  30
$$

WIZ051-052-058>065-066-070>072-261800-
SOUTHEAST WISCONSIN

CITY           SKY/WX    TMP DP  RH WIND       PRES   REMARKS
MILWAUKEE      CLOUDY    38  19  46 W15       29.96F WCI  29
WAUKESHA       CLOUDY    34  21  60 NW16      29.97S WCI  23
MILWAUKEE/TIMM CLOUDY    37  19  48 NW15      29.96F WCI  28
RACINE         CLOUDY    40  21  46 NW8       29.97F WCI  34
BURLINGTON     CLOUDY    37  22  55 NW14G20   29.96F WCI  28
KENOSHA        CLOUDY    40  24  53 N9        29.96S WCI  34
FOND DU LAC    CLOUDY    34  20  56 NW15      29.96S WCI  24
SHEBOYGAN      CLOUDY    34  22  61 NW16G23   29.94S WCI  24
WEST BEND      CLOUDY    34  21  60 NW9       29.95S WCI  26
JUNEAU         CLOUDY    34  22  61 NW12      29.97S WCI  25
$$

LSZ147-162-261800-
LAKE SUPERIOR

STATION/POSITION TIME  TEMP    WIND        PRES    WAVE
                       AIR SEA DIR/SP/G            HT/PER
                 (UTC) (F)     (DEG/KT/KT) (MB)    (FT/S)
DEVILS ISLAND    1700   20     350/ 13/ 17 1021.7R
PORT WING        1640   24      10/  7/ 10 1020.7S
$$

LMZ867-665-643>646-261800-
LAKE MICHIGAN

STATION/POSITION TIME  TEMP    WIND        PRES    WAVE
                       AIR SEA DIR/SP/G            HT/PER
                 (UTC) (F)     (DEG/KT/KT) (MB)    (FT/S)
NORTHPORT PIER   1704   28     330/ 18/ 23 1013.9R
SISTER BAY       1647   31     360/ 20/ 24   N/A
KEWAUNEE LAKESHO 1600   33     320/ 10/ 15 1012.8R
SHEBOYGAN LAKESH 1700   35     300/ 13/ 15 1014.9R
PORT WASHINGTON  1600   37     300/  7/ 11 1015.2R
MILWAUKEE LAKESH 1700   37     310/ 12/ 17   N/A
KENOSHA   LAKESH 1700   38     320/  9/ 16 1014.6F
$$

TC  - TEMPERATURE IN CELSIUS
VSB - VISIBILITY IN STATUTE MILES
WCI - WIND CHILL INDEX
HX  - HEAT INDEX



USA.gov is the U.S. government's official web portal to all federal, state and local government web resources and services.